EWG2WL EDDS-LGTS

Flight info

Callsign EWG2WL
Flight time N/A
Altitude 37000
Route ABTAL4H/07 ABTAL L173 RIXED Y161 MAH L173 OTT M867 RADIZ DCT LUPIX DCT KOTOR DCT NAVSU DCT GACMO DCT NIK DCT ENFAR DCT TALAS N130 ALIKO
Aircraft A320/M-SDE3FGHIRWY/LB1

Departure

Time 2026-05-04 16:53
Airport Stuttgart Airport (EDDS)

Arrival

Time N/A
Airport Thessaloniki Macedonia International Airport (LGTS)
Time Latitude Longitude Altitude Speed Heading
2026-05-04 16:16 48.68897 9.19428 1316 ft 0 kts 344°
2026-05-04 16:45 48.68866 9.19437 1314 ft 4 kts
2026-05-04 16:46 48.68809 9.19396 1313 ft 0 kts 74°
2026-05-04 16:49 48.68810 9.19400 1313 ft 1 kts 73°
2026-05-04 16:49 48.68839 9.19545 1310 ft 12 kts 73°
2026-05-04 16:50 48.68891 9.19825 1304 ft 12 kts 75°
2026-05-04 16:50 48.68775 9.19947 1294 ft 13 kts 164°
2026-05-04 16:51 48.68694 9.19982 1289 ft 3 kts 163°
2026-05-04 16:51 48.68676 9.19990 1288 ft 2 kts 164°
2026-05-04 16:51 48.68675 9.19991 1288 ft 0 kts 164°
2026-05-04 16:52 48.68633 9.20012 1289 ft 11 kts 155°
2026-05-04 16:52 48.68595 9.20108 1282 ft 12 kts 95°
2026-05-04 16:53 48.68668 9.20509 1273 ft 49 kts 74°
2026-05-04 16:53 48.69402 9.24509 2130 ft 158 kts 71°
2026-05-04 16:54 48.69703 9.26098 2875 ft 156 kts 69°
2026-05-04 16:55 48.71037 9.32690 4957 ft 189 kts 72°
2026-05-04 16:55 48.71838 9.36819 5596 ft 225 kts 76°
2026-05-04 16:56 48.72703 9.41956 6169 ft 277 kts 77°
2026-05-04 16:56 48.74344 9.50505 8799 ft 288 kts 76°
2026-05-04 16:57 48.74912 9.53445 9650 ft 293 kts 77°
2026-05-04 16:57 48.76053 9.59584 10701 ft 324 kts 77°
2026-05-04 16:58 48.78025 9.70283 12169 ft 365 kts 76°
2026-05-04 16:58 48.78724 9.74015 12890 ft 370 kts 76°
2026-05-04 16:59 48.80140 9.81625 14266 ft 379 kts 76°
2026-05-04 17:00 48.83035 9.97377 16790 ft 396 kts 76°
2026-05-04 17:00 48.85090 10.09709 18537 ft 407 kts 85°
2026-05-04 17:01 48.84860 10.18316 19496 ft 412 kts 99°
2026-05-04 17:01 48.84152 10.27005 20551 ft 417 kts 99°
2026-05-04 17:02 48.83548 10.34322 21398 ft 422 kts 101°
2026-05-04 17:02 48.81675 10.42684 22377 ft 420 kts 122°
2026-05-04 17:03 48.80062 10.46367 22853 ft 419 kts 132°
2026-05-04 17:03 48.78107 10.49645 23305 ft 420 kts 136°
2026-05-04 17:03 48.74053 10.56104 24108 ft 426 kts 136°
2026-05-04 17:04 48.69938 10.62652 24860 ft 431 kts 136°
2026-05-04 17:04 48.65775 10.69259 25599 ft 436 kts 136°
2026-05-04 17:05 48.61590 10.75902 26323 ft 441 kts 136°
2026-05-04 17:05 48.57331 10.82656 27040 ft 446 kts 136°
2026-05-04 17:06 48.53056 10.89510 27727 ft 451 kts 136°
2026-05-04 17:06 48.50900 10.92966 28048 ft 453 kts 136°
2026-05-04 17:07 48.46546 10.99892 28694 ft 457 kts 136°
2026-05-04 17:07 48.45054 11.02229 28908 ft 459 kts 136°
2026-05-04 17:07 48.42103 11.06813 29321 ft 461 kts 137°
2026-05-04 17:07 48.39854 11.10288 29625 ft 464 kts 137°
2026-05-04 17:08 48.37601 11.13767 29932 ft 465 kts 137°